Skip Page Navigation
NASA JPL Caltech
NASA Logo - Jet Propulsion Laboratory + View the NASA Portal
+ Near-Earth Object (NEO) Program
Search JPL
JPL Home Earth Solar System Stars & Galaxies Technology
JPL Solar System Dynamics
BODIES ORBITS EPHEMERIDES TOOLS PHYSICAL DATA DISCOVERY FAQ SITE MAP
JPL Small-Body Database Browser
Search: [ help ]  
8003 Kelvin (1987 RJ)
Classification: Main-belt Asteroid          SPK-ID: 2008003
Ephemeris | Orbit Diagram | Orbital Elements | Physical Parameters | Discovery Circumstances ]

[ show orbit diagram ]
Orbital Elements at Epoch 2456400.5 (2013-Apr-18.0) TDB
Reference: MPO231466 (heliocentric ecliptic J2000)
 Element Value Uncertainty (1-sigma)   Units 
e 0.1197598 n/a  
a 2.2230999 n/a AU
q 1.9568619 n/a AU
i 2.84482 n/a deg
node 73.95749 n/a deg
peri 287.31424 n/a deg
M 259.37202 n/a deg
tp 2456738.9177618
(2014-Mar-22.41776180)
n/a JED
period 1210.7009824
3.31
n/a
n/a
d
yr
n 0.29734840 n/a deg/d
Q 2.4893379 n/a AU
  Orbit Determination Parameters
   # obs. used (total)      1087  
   first obs. used      1956-??-??  
   last obs. used      2012-05-30  
   # oppositions      16  
   planetary ephem.      DE403  
   condition code      0  
   fit RMS      0.55  
   data source      MPC:mpn  
   producer      MPCLINUX  

Additional Information
 T_jup = 3.637 

Ephemeris | Orbit Diagram | Orbital Elements | Physical Parameters | Discovery Circumstances ]

Physical Parameter Table
Parameter Symbol Value Units Sigma Reference Notes
absolute magnitude H 13.8 mag n/a PDS3 (MPC 30853)  
diameter diameter 14.7 km n/a DASTCOM value unverified
geometric albedo albedo 0.0258   0.006 EAR-A-5-DDR-ALBEDOS-V1.0:IMPS IMPS quality code 2: from the PDS IMPS singleton file

8003 Kelvin           Discovered 1987 Sept. 1 by E. W. Elst at the European Southern Observatory.
William Thomson (Lord Kelvin, 1824-1907), well known for the absolute temperature scale, contributed to modern physics through his major role in the development of the second law of thermodynamics. His theoretical work on submarine telegraphy led to the laying of the first transatlantic cable.
NOTE: some special characters may not display properly (any characters within {} are an attempt to place the proper accent above a character)
Reference: 20021120/MPCPages.arcLast Updated: 2003-10-02

Alternate Designations
 1987 RJ = 1982 BT10 = 1984 XC 
Ephemeris | Orbit Diagram | Orbital Elements | Physical Parameters | Discovery Circumstances ]
ABOUT SSD CREDITS/AWARDS PRIVACY/COPYRIGHT GLOSSARY LINKS
FirstGov 2013-Jun-19 16:12 UT
(server date/time)  
NASA Home Page
Site Manager:   Donald K. Yeomans
Webmaster  Alan B. Chamberlin